Location: Rehoboth Beach
(38.7438°N, 75.1341°W)
Time: 11:54:37
(UTC-04:00)

Cosmos 1452 Rocket - Visible Passes

Search period start: 29 April 2016 00:00
Search period end: 09 May 2016 00:00
Orbit: 768 x 775 km, 74.1° (Epoch: 28 April)

Date Brightness Start Highest point End Pass type
(mag) Time Alt. Az. Time Alt. Az. Time Alt. Az.
29 Apr 5.7 01:14:32 10° NNW 01:16:04 19° NW 01:16:04 19° NW visible
29 Apr 5.7 22:57:59 10° NNE 23:00:21 14° NE 23:00:21 14° NE visible
30 Apr 5.3 00:38:18 10° NNW 00:40:41 27° NNW 00:40:41 27° NNW visible
01 May 4.9 00:02:19 10° NNW 00:05:20 34° N 00:05:20 34° N visible
01 May 4.8 23:26:33 10° N 23:29:59 33° NNE 23:29:59 33° NNE visible
02 May 5.9 01:09:19 10° NW 01:10:19 14° NW 01:10:19 14° NW visible
02 May 5.1 22:51:01 10° N 22:54:40 24° NE 22:54:40 24° NE visible
03 May 5.4 00:32:42 10° NW 00:35:01 24° NW 00:35:01 24° NW visible
03 May 5.5 22:15:57 10° NNE 22:19:01 15° ENE 22:19:23 15° ENE visible
03 May 4.7 23:56:26 10° NNW 23:59:43 38° NW 23:59:43 38° NW visible
04 May 4.1 23:20:25 10° NNW 23:24:26 52° N 23:24:26 52° N visible
05 May 4.2 22:44:37 10° N 22:49:11 42° NE 22:49:11 42° NE visible
06 May 5.7 00:27:32 10° NW 00:29:32 17° WNW 00:29:32 17° WNW visible
06 May 4.7 22:09:03 10° N 22:13:27 26° ENE 22:13:58 26° ENE visible
06 May 4.9 23:50:51 10° NW 23:54:18 31° WNW 23:54:18 31° WNW visible
07 May 5.3 21:33:54 10° NNE 21:37:10 16° ENE 21:38:46 14° ENE visible
07 May 3.9 23:14:33 10° NNW 23:19:07 57° WNW 23:19:07 57° WNW visible
08 May 3.4 22:38:31 10° NNW 22:43:47 77° ENE 22:43:56 77° E visible
